Time,TemperatureF,DewpointF,PressureIn,WindDirection,WindDirectionDegrees,WindSpeedMPH,WindSpeedGustMPH,Humidity,HourlyPrecipIn,Conditions,Clouds,dailyrainin,SoftwareType,DateUTC
2013-01-31 00:04:00,69.0,-99.9,29.75,SSW,203,14.0,14.0,-999,0.00,,,0.00,,2013-01-31 05:04:00,
2013-01-31 00:11:00,69.0,-99.9,29.75,SSW,203,14.0,14.0,-999,0.00,,,0.00,,2013-01-31 05:11:00,
2013-01-31 00:22:00,69.0,-99.9,29.74,South,187,10.0,10.0,-999,0.00,,,0.00,,2013-01-31 05:22:00,
2013-01-31 00:32:00,69.0,-99.9,29.74,South,187,10.0,10.0,-999,0.00,,,0.00,,2013-01-31 05:32:00,
2013-01-31 00:42:00,68.0,-99.9,29.74,SW,226,10.0,12.0,-999,0.00,,,0.00,,2013-01-31 05:42:00,
2013-01-31 00:52:00,68.0,-99.9,29.74,SW,226,10.0,12.0,-999,0.00,,,0.00,,2013-01-31 05:52:00,
2013-01-31 01:01:00,68.0,-99.9,29.74,SW,226,10.0,12.0,-999,0.00,,,0.00,,2013-01-31 06:01:00,
2013-01-31 01:11:00,68.0,-99.9,29.74,SW,226,10.0,12.0,-999,0.00,,,0.00,,2013-01-31 06:11:00,
2013-01-31 09:03:00,60.0,-99.9,29.89,NNE,13,0.0,0.0,-999,0.05,,,0.00,,2013-01-31 14:03:00,
2013-01-31 09:12:00,60.0,-99.9,29.89,NNE,13,0.0,0.0,-999,0.05,,,0.00,,2013-01-31 14:12:00,
2013-01-31 09:22:00,60.0,-99.9,29.91,NW,305,0.0,0.0,-999,0.00,,,0.00,,2013-01-31 14:22:00,
2013-01-31 09:32:00,60.0,-99.9,29.91,NNW,347,4.0,0.0,-999,0.00,,,0.00,,2013-01-31 14:32:00,
2013-01-31 09:42:00,60.0,-99.9,29.91,NNW,347,4.0,0.0,-999,0.00,,,0.00,,2013-01-31 14:42:00,
2013-01-31 09:52:00,61.0,-99.9,29.91,NW,309,3.0,10.0,-999,0.00,,,0.00,,2013-01-31 14:52:00,
2013-01-31 10:03:00,61.0,-99.9,29.91,NW,323,5.0,11.0,-999,0.00,,,0.00,,2013-01-31 15:03:00,
2013-01-31 10:12:00,62.0,-99.9,29.92,NNW,329,7.0,7.0,-999,0.00,,,0.00,,2013-01-31 15:12:00,
2013-01-31 10:23:00,62.0,-99.9,29.92,NNW,329,7.0,7.0,-999,0.00,,,0.00,,2013-01-31 15:23:00,
2013-01-31 10:32:00,63.0,-99.9,29.93,NW,322,6.0,7.0,-999,0.00,,,0.00,,2013-01-31 15:32:00,
2013-01-31 10:42:00,63.0,-99.9,29.93,NW,322,6.0,7.0,-999,0.00,,,0.00,,2013-01-31 15:42:00,
2013-01-31 10:52:00,63.0,-99.9,29.92,NW,319,6.0,0.0,-999,0.00,,,0.00,,2013-01-31 15:52:00,
2013-01-31 11:04:00,63.0,-99.9,29.93,NNW,333,2.0,9.0,-999,0.00,,,0.00,,2013-01-31 16:04:00,
2013-01-31 11:13:00,64.0,-99.9,29.93,NW,323,5.0,6.0,-999,0.00,,,0.00,,2013-01-31 16:13:00,
2013-01-31 11:22:00,64.0,-99.9,29.93,NW,323,5.0,6.0,-999,0.00,,,0.00,,2013-01-31 16:22:00,
2013-01-31 11:33:00,65.0,-99.9,29.93,NW,308,2.0,3.0,-999,0.00,,,0.00,,2013-01-31 16:33:00,
2013-01-31 11:42:00,65.0,-99.9,29.93,NW,308,2.0,3.0,-999,0.00,,,0.00,,2013-01-31 16:42:00,
2013-01-31 11:52:00,65.0,-99.9,29.92,WNW,297,4.0,0.0,-999,0.00,,,0.00,,2013-01-31 16:52:00,
2013-01-31 12:03:00,65.0,-99.9,29.92,NW,309,2.0,5.0,-999,0.00,,,0.00,,2013-01-31 17:03:00,
2013-01-31 12:13:00,65.0,-99.9,29.92,NW,309,2.0,5.0,-999,0.00,,,0.00,,2013-01-31 17:13:00,
2013-01-31 12:23:00,65.0,-99.9,29.92,NW,305,7.0,0.0,-999,0.00,,,0.00,,2013-01-31 17:23:00,
2013-01-31 12:32:00,65.0,-99.9,29.92,NW,318,4.0,5.0,-999,0.00,,,0.00,,2013-01-31 17:32:00,
2013-01-31 12:44:00,65.0,-99.9,29.92,NW,318,4.0,5.0,-999,0.00,,,0.00,,2013-01-31 17:44:00,
2013-01-31 12:53:00,65.0,-99.9,29.91,NNW,330,5.0,5.0,-999,0.00,,,0.00,,2013-01-31 17:53:00,
2013-01-31 13:03:00,66.0,-99.9,29.91,North,3,5.0,6.0,-999,0.00,,,0.00,,2013-01-31 18:03:00,
2013-01-31 13:13:00,66.0,-99.9,29.90,NNW,329,2.0,6.0,-999,0.00,,,0.00,,2013-01-31 18:13:00,
2013-01-31 13:22:00,66.0,-99.9,29.90,NNW,329,2.0,6.0,-999,0.00,,,0.00,,2013-01-31 18:22:00,
2013-01-31 13:32:00,66.0,-99.9,29.90,NW,314,3.0,6.0,-999,0.00,,,0.00,,2013-01-31 18:32:00,
2013-01-31 13:43:00,66.0,-99.9,29.90,NW,314,3.0,6.0,-999,0.00,,,0.00,,2013-01-31 18:43:00,
2013-01-31 13:52:00,66.0,-99.9,29.90,WNW,283,0.0,0.0,-999,0.00,,,0.00,,2013-01-31 18:52:00,
2013-01-31 14:03:00,66.0,-99.9,29.90,NW,316,8.0,8.0,-999,0.00,,,0.00,,2013-01-31 19:03:00,
2013-01-31 14:13:00,66.0,-99.9,29.90,NW,316,8.0,8.0,-999,0.00,,,0.00,,2013-01-31 19:13:00,
2013-01-31 14:22:00,66.0,-99.9,29.90,NW,322,7.0,0.0,-999,0.00,,,0.00,,2013-01-31 19:22:00,
2013-01-31 14:33:00,66.0,-99.9,29.91,North,4,3.0,0.0,-999,0.00,,,0.00,,2013-01-31 19:33:00,
2013-01-31 14:43:00,66.0,-99.9,29.91,North,4,3.0,0.0,-999,0.00,,,0.00,,2013-01-31 19:43:00,
2013-01-31 14:52:00,67.0,-99.9,29.91,NW,304,2.0,7.0,-999,0.00,,,0.00,,2013-01-31 19:52:00,
2013-01-31 15:03:00,65.0,-99.9,29.90,NW,316,2.0,0.0,-999,0.00,,,0.00,,2013-01-31 20:03:00,
2013-01-31 15:12:00,66.0,-99.9,29.91,NW,308,3.0,0.0,-999,0.00,,,0.00,,2013-01-31 20:12:00,
2013-01-31 15:22:00,66.0,-99.9,29.91,NW,308,3.0,0.0,-999,0.00,,,0.00,,2013-01-31 20:22:00,
2013-01-31 15:32:00,66.0,-99.9,29.91,WNW,291,1.0,0.0,-999,0.00,,,0.00,,2013-01-31 20:32:00,
2013-01-31 15:42:00,66.0,-99.9,29.91,NW,323,5.0,0.0,-999,0.00,,,0.00,,2013-01-31 20:42:00,
2013-01-31 15:53:00,66.0,-99.9,29.91,NW,323,5.0,0.0,-999,0.00,,,0.00,,2013-01-31 20:53:00,
2013-01-31 16:02:00,66.0,-99.9,29.91,WNW,285,6.0,6.0,-999,0.00,,,0.00,,2013-01-31 21:02:00,
2013-01-31 16:13:00,65.0,-99.9,29.91,WNW,287,4.0,5.0,-999,0.00,,,0.00,,2013-01-31 21:13:00,
2013-01-31 16:22:00,65.0,-99.9,29.91,WNW,287,4.0,5.0,-999,0.00,,,0.00,,2013-01-31 21:22:00,
2013-01-31 16:32:00,66.0,-99.9,29.91,WNW,288,4.0,12.0,-999,0.00,,,0.00,,2013-01-31 21:32:00,
2013-01-31 16:42:00,66.0,-99.9,29.91,WNW,288,4.0,12.0,-999,0.00,,,0.00,,2013-01-31 21:42:00,
2013-01-31 16:52:00,65.0,-99.9,29.92,WNW,290,0.0,0.0,-999,0.00,,,0.00,,2013-01-31 21:52:00,
2013-01-31 17:03:00,65.0,-99.9,29.92,NNW,338,1.0,0.0,-999,0.00,,,0.00,,2013-01-31 22:03:00,
2013-01-31 17:11:00,64.0,-99.9,29.92,WNW,287,2.0,0.0,-999,0.00,,,0.00,,2013-01-31 22:11:00,
2013-01-31 17:22:00,64.0,-99.9,29.92,WNW,287,2.0,0.0,-999,0.00,,,0.00,,2013-01-31 22:22:00,
2013-01-31 17:33:00,63.0,-99.9,29.92,WNW,301,1.0,6.0,-999,0.00,,,0.00,,2013-01-31 22:33:00,
2013-01-31 17:42:00,63.0,-99.9,29.92,WNW,301,1.0,6.0,-999,0.00,,,0.00,,2013-01-31 22:42:00,
2013-01-31 17:52:00,63.0,-99.9,29.92,NNW,332,0.0,0.0,-999,0.00,,,0.00,,2013-01-31 22:52:00,
2013-01-31 18:03:00,62.0,-99.9,29.93,NNW,335,0.0,5.0,-999,0.00,,,0.00,,2013-01-31 23:03:00,
2013-01-31 18:12:00,61.0,-99.9,29.93,NW,304,0.0,0.0,-999,0.00,,,0.00,,2013-01-31 23:12:00,
2013-01-31 18:22:00,61.0,-99.9,29.93,NW,304,0.0,0.0,-999,0.00,,,0.00,,2013-01-31 23:22:00,
2013-01-31 18:32:00,61.0,-99.9,29.93,WNW,295,0.0,0.0,-999,0.00,,,0.00,,2013-01-31 23:32:00,
2013-01-31 18:42:00,61.0,-99.9,29.93,WNW,295,0.0,0.0,-999,0.00,,,0.00,,2013-01-31 23:42:00,
2013-01-31 18:52:00,60.0,-99.9,29.94,WNW,295,0.0,0.0,-999,0.00,,,0.00,,2013-01-31 23:52:00,
2013-01-31 19:02:00,59.0,-99.9,29.94,WNW,295,0.0,0.0,-999,0.00,,,0.00,,2013-02-01 00:02:00,
2013-01-31 19:11:00,59.0,-99.9,29.94,WNW,295,0.0,0.0,-999,0.00,,,0.00,,2013-02-01 00:11:00,
2013-01-31 19:22:00,58.0,-99.9,29.95,WNW,295,0.0,0.0,-999,0.00,,,0.00,,2013-02-01 00:22:00,
2013-01-31 19:32:00,58.0,-99.9,29.96,WNW,295,0.0,0.0,-999,0.00,,,0.00,,2013-02-01 00:32:00,
2013-01-31 19:42:00,58.0,-99.9,29.96,WNW,295,0.0,0.0,-999,0.00,,,0.00,,2013-02-01 00:42:00,
2013-01-31 19:52:00,58.0,-99.9,29.96,WNW,295,0.0,0.0,-999,0.00,,,0.00,,2013-02-01 00:52:00,
2013-01-31 20:01:00,58.0,-99.9,29.97,WNW,300,0.0,0.0,-999,0.00,,,0.00,,2013-02-01 01:01:00,
2013-01-31 20:12:00,58.0,-99.9,29.98,NW,309,0.0,0.0,-999,0.00,,,0.13,,2013-02-01 01:12:00,
2013-01-31 20:22:00,58.0,-99.9,29.98,NW,309,0.0,0.0,-999,0.00,,,0.13,,2013-02-01 01:22:00,
2013-01-31 20:32:00,57.0,-99.9,29.98,North,356,2.0,0.0,-999,0.00,,,0.13,,2013-02-01 01:32:00,
2013-01-31 20:42:00,57.0,-99.9,29.98,North,356,2.0,0.0,-999,0.00,,,0.13,,2013-02-01 01:42:00,
2013-01-31 20:52:00,56.0,-99.9,29.99,NW,321,0.0,0.0,-999,0.00,,,0.13,,2013-02-01 01:52:00,
2013-01-31 21:02:00,56.0,-99.9,30.00,WNW,302,1.0,0.0,-999,0.00,,,0.13,,2013-02-01 02:02:00,
2013-01-31 21:12:00,56.0,-99.9,30.00,WNW,302,1.0,0.0,-999,0.00,,,0.13,,2013-02-01 02:12:00,
2013-01-31 21:22:00,56.0,-99.9,30.00,NW,307,4.0,7.0,-999,0.00,,,0.13,,2013-02-01 02:22:00,
2013-01-31 21:32:00,55.0,-99.9,30.00,NW,304,2.0,0.0,-999,0.00,,,0.13,,2013-02-01 02:32:00,
2013-01-31 21:42:00,55.0,-99.9,30.00,NW,304,2.0,0.0,-999,0.00,,,0.13,,2013-02-01 02:42:00,
2013-01-31 21:52:00,55.0,-99.9,29.99,NNW,329,4.0,0.0,-999,0.00,,,0.13,,2013-02-01 02:52:00,
2013-01-31 22:02:00,54.0,-99.9,30.00,NNW,345,3.0,0.0,-999,0.00,,,0.13,,2013-02-01 03:02:00,
2013-01-31 22:12:00,54.0,-99.9,30.00,NNW,345,3.0,0.0,-999,0.00,,,0.13,,2013-02-01 03:12:00,
2013-01-31 22:22:00,54.0,-99.9,30.01,NNW,335,0.0,0.0,-999,0.00,,,0.13,,2013-02-01 03:22:00,
2013-01-31 22:33:00,54.0,-99.9,30.01,NW,319,3.0,0.0,-999,0.00,,,0.13,,2013-02-01 03:33:00,
2013-01-31 22:42:00,54.0,-99.9,30.01,NW,319,3.0,0.0,-999,0.00,,,0.13,,2013-02-01 03:42:00,
2013-01-31 22:52:00,53.0,-99.9,30.01,NW,304,3.0,0.0,-999,0.00,,,0.13,,2013-02-01 03:52:00,
2013-01-31 23:02:00,53.0,-99.9,30.01,WNW,300,4.0,4.0,-999,0.00,,,0.13,,2013-02-01 04:02:00,
2013-01-31 23:11:00,53.0,-99.9,30.01,NNW,333,1.0,0.0,-999,0.00,,,0.13,,2013-02-01 04:11:00,
2013-01-31 23:22:00,53.0,-99.9,30.01,NNW,333,1.0,0.0,-999,0.00,,,0.13,,2013-02-01 04:22:00,
2013-01-31 23:32:00,53.0,-99.9,30.01,NNW,330,2.0,0.0,-999,0.00,,,0.13,,2013-02-01 04:32:00,
2013-01-31 23:42:00,53.0,-99.9,30.01,NNW,330,2.0,0.0,-999,0.00,,,0.13,,2013-02-01 04:42:00,
2013-01-31 23:52:00,52.0,-99.9,30.01,NW,314,0.0,0.0,-999,0.00,,,0.13,,2013-02-01 04:52:00,